FENGYUN 1C DEB

Satellite information

Favourite Embed

Satellite Type and Status

DEBRISIN ORBIT

Key statistics

Satellite FENGYUN 1C DEB at a glance.

Uptime

9615

Days in orbit

Revolutions

≈ 14.2

Per day

Orbit

SSO

Sun Synchronous Orbit

Inclination

99.0

Latest

Satellite identification and parameters

Extended collection of information and parameters for FENGYUN 1C DEB.

Object identification

Identified? True

Debris? True

Object name: FENGYUN 1C DEB

International designator: 1999-025ATS

Object number (NORAD): 30756

Object ID (CCSDS): 30756

Country: PEOPLES REPUBLIC OF CHINA (PRC)

Current information (Y/N): Y

RCS size: SMALL

Orbital parameters

Period: 101.586 minutes

Inclination: 98.9997 deg

SMA: 7211.88 km

Apoapsis: 886.265 km

Periapsis: 781.226 km

RAAN: 311.2661 deg

Eccentricy: 0.00728233

Argument of periapsis: 245.2818 deg

Mean anomaly: 143.0814 deg

Mean motion: 14.17522601 rev/day

Mean motion (dot): 0.00005118 rev/day2

B* drag term: 0.0024775407 1/REarth

Two-line elements (TLE)

Creation date: Sept. 2, 2025, 10:20 a.m.

Reference frame: TEME

Reference center: EARTH

Epoch: Sept. 2, 2025, 3:34 a.m. UTC

TLE line 0: 0 FENGYUN 1C DEB

TLE line 1: 1 30756U 99025ATS 25245.14915373 .00005118 00000-0 24775-2 0 9999

TLE line 2: 2 30756 98.9997 311.2661 0072823 245.2818 143.0814 14.17522601949659

Live tracking on map

Real-time ground track for satellite FENGYUN 1C DEB.

In-orbit conjunctions

A list of the most updated potential collisions computed for object FENGYUN 1C DEB.

Target Orbit TCA Probability of collision Miss distance Type
FENGYUN 1C DEB SSO 2024-09-25 19:55:07 0.000100858 951.0 (m) DEBRIS

Associated space launch

Chinese polar orbiting meteorological satellite

FENGYUN 1C DEB was lifted into orbit during the mission ‘Long March 4B | Feng Yun 1C’, on board a Long March 4B space rocket.

The launch took place on May 10, 1999, 1:33 a.m. from Launch Complex 7.

For more information about the launch, click the button.

Launch to space Long March 4B | Feng Yun 1C
Long March 4B | Feng Yun 1C

Agency: N/A

Status: Launch Successful

Launch date: May 10, 1999, 1:33 a.m. UTC

Rocket: Long March 4B

Launch pad: Launch Complex 7

Location: Taiyuan Satellite Launch Center, People's Republic of China

...

Latest news about this satellite

There are no fresh news available about this satellite. Check back as we update our databases every day.


Newsletter sign-up

Weekly statistics, charts and insights to help you stay on top of the space industry.